CW9561 Weather Reports


Display with metric or nautical units.
time (UTC)temp
F
wind
direction
speed
MPH
gust
MPH
rain 1hr
in
rain 24hr
in
rain mn
in
humidity
%
barometer
mb
20260507090029 24 241 0.0 0.0 0.00 0.00 0.00 77 1021.6
20260507085027 24 242 0.0 0.0 0.00 0.00 0.00 76 1021.9
20260507084039 25 241 0.0 0.0 0.00 0.00 0.00 75 1022.5
20260507083030 25 242 0.0 0.0 0.00 0.00 0.00 75 1022.3
20260507082026 25 242 0.0 0.0 0.00 0.00 0.00 74 1022.3
20260507080034 25 242 0.0 0.0 0.00 0.00 0.00 74 1022.5
20260507074022 26 242 0.0 0.0 0.00 0.00 0.00 71 1022.4
20260507073037 27 241 0.0 0.0 0.00 0.00 0.00 71 1022.6
20260507072033 26 242 0.0 0.0 0.00 0.00 0.00 73 1022.7
20260507071025 26 242 0.0 0.0 0.00 0.00 0.00 72 1022.8
20260507065036 27 241 0.0 0.0 0.00 0.00 0.00 70 1022.4
20260507064032 28 242 0.0 0.0 0.00 0.00 0.00 69 1022.5
20260507063030 28 242 0.0 0.0 0.00 0.00 0.00 68 1022.4
20260507062022 28 241 0.0 0.0 0.00 0.00 0.00 68 1022.4
20260507061036 27 241 0.0 0.0 0.00 0.00 0.00 70 1022.3
20260507060025 28 242 0.0 0.0 0.00 0.00 0.00 68 1022.1
20260507055020 28 241 0.0 0.0 0.00 0.00 0.02 68 1022.1
20260507054018 29 241 0.0 0.0 0.00 0.00 0.02 66 1021.9
20260507053037 29 242 0.0 0.0 0.00 0.00 0.02 65 1021.8
20260507052030 29 242 1.0 0.0 0.00 0.00 0.02 66 1021.8
20260507051022 27 241 0.0 0.0 0.00 0.00 0.02 70 1022.1
20260507045034 27 241 0.0 0.0 0.00 0.00 0.02 74 1022.3
20260507043040 27 241 0.0 0.0 0.00 0.00 0.02 76 1022.3
20260507041029 27 241 0.0 0.0 0.00 0.00 0.02 75 1022.8
20260507040023 28 241 0.0 0.0 0.00 0.00 0.02 73 1022.7
20260507035038 28 241 0.0 0.0 0.00 0.00 0.02 74 1022.8
20260507034030 28 241 0.0 0.0 0.00 0.00 0.02 71 1022.6
20260507033042 28 241 0.0 0.0 0.00 0.00 0.02 72 1022.5
20260507031031 29 241 0.0 0.0 0.00 0.00 0.02 71 1022.0
20260507030030 29 241 0.0 0.0 0.00 0.00 0.02 68 1021.8
20260507025023 30 241 0.0 0.0 0.00 0.00 0.02 68 1021.8
20260507024033 30 241 0.0 0.0 0.00 0.00 0.02 69 1021.4
20260507023026 30 241 0.0 0.0 0.00 0.00 0.02 69 1021.4
20260507022024 30 241 0.0 0.0 0.00 0.00 0.02 69 1021.3
20260507021040 31 241 0.0 0.0 0.00 0.00 0.02 67 1021.3
20260507020032 31 241 0.0 0.0 0.00 0.00 0.02 64 1020.9
20260507014037 33 241 0.0 0.0 0.00 0.00 0.02 62 1020.5
20260507013030 33 241 0.0 0.0 0.00 0.00 0.02 59 1020.2
20260507012027 34 241 0.0 0.0 0.00 0.00 0.02 58 1020.1
20260507011038 34 241 1.0 0.0 0.00 0.00 0.02 56 1020.1
20260507010033 35 219 1.0 0.0 0.00 0.00 0.02 54 1019.9
20260507005026 35 236 1.0 0.0 0.00 0.00 0.02 55 1019.6
20260507004023 36 325 0.0 0.0 0.00 0.00 0.02 53 1019.2
20260507003034 36 321 0.0 0.0 0.00 0.00 0.02 55 1019.0
20260507002028 37 325 1.0 0.0 0.00 0.00 0.02 55 1019.0
20260507001041 37 355 0.0 0.0 0.00 0.00 0.02 53 1018.9
20260507000031 36 294 0.0 0.0 0.00 0.00 0.02 57 1018.9
20260506235029 36 262 1.0 0.0 0.00 0.00 0.02 57 1018.7
20260506234023 37 334 1.0 0.0 0.00 0.00 0.02 55 1018.7
20260506232036 38 307 1.0 0.0 0.00 0.00 0.02 56 1018.6
20260506231029 38 307 0.0 0.0 0.00 0.00 0.02 57 1018.3
20260506230029 39 303 1.0 0.0 0.00 0.00 0.02 53 1018.2
20260506225026 39 286 1.0 0.0 0.00 0.00 0.02 53 1018.0
20260506224040 38 277 1.0 0.0 0.00 0.00 0.02 56 1017.9
20260506223035 38 294 3.0 0.0 0.00 0.00 0.02 59 1018.0
20260506222027 39 280 2.0 0.0 0.00 0.00 0.02 58 1018.0
20260506220020 40 289 2.0 0.0 0.00 0.00 0.02 53 1017.7
20260506214030 40 265 4.0 0.0 0.00 0.00 0.02 59 1017.9
20260506213026 40 340 1.0 0.0 0.00 0.00 0.02 58 1017.8
20260506212023 39 64 2.0 0.0 0.00 0.00 0.02 57 1017.7
20260506211035 39 343 2.0 0.0 0.00 0.00 0.02 60 1017.9
20260506205027 36 355 1.0 0.0 0.00 0.00 0.02 72 1017.7
20260506204039 34 319 3.0 0.0 0.00 0.00 0.02 80 1017.7
20260506203031 33 348 3.0 0.0 0.00 0.00 0.02 78 1017.8
20260506202029 36 351 3.0 0.0 0.00 0.00 0.02 78 1017.8
20260506201021 36 337 3.0 0.0 0.00 0.00 0.02 68 1017.5
20260506200036 34 223 2.0 0.0 0.00 0.00 0.02 69 1017.5
20260506195027 33 350 1.0 0.0 0.00 0.00 0.02 73 1017.5
20260506194027 34 262 2.0 0.0 0.00 0.00 0.02 74 1017.6
20260506193021 36 348 2.0 0.0 0.00 0.00 0.02 71 1017.4
20260506192036 34 57 3.0 0.0 0.00 0.00 0.02 74 1017.3
20260506191028 33 36 2.0 0.0 0.00 0.00 0.02 69 1017.3
20260506190021 33 233 1.0 0.0 0.00 0.00 0.02 69 1017.2
20260506185038 35 338 3.0 0.0 0.00 0.00 0.02 64 1017.2
20260506184031 33 348 3.0 0.0 0.00 0.00 0.02 69 1017.1
20260506183024 32 21 3.0 0.0 0.00 0.00 0.02 66 1017.1
20260506182041 33 332 5.0 0.0 0.00 0.00 0.02 69 1017.0
20260506175026 32 360 4.0 0.0 0.00 0.00 0.01 76 1016.7
20260506174040 32 15 2.0 0.0 0.00 0.00 0.01 76 1016.6
20260506173031 31 348 4.0 0.0 0.00 0.00 0.01 79 1016.5
20260506172022 31 29 2.0 0.0 0.00 0.00 0.01 79 1016.5
20260506171019 29 21 4.0 0.0 0.00 0.00 0.01 78 1016.4
20260506170033 28 350 4.0 0.0 0.00 0.00 0.01 79 1016.9
20260506165025 27 10 1.0 0.0 0.00 0.00 0.00 81 1016.7
20260506163038 26 360 2.0 0.0 0.00 0.00 0.00 84 1016.2
20260506162030 26 326 1.0 0.0 0.00 0.00 0.00 85 1016.1
20260506161024 25 342 1.0 0.0 0.00 0.00 0.00 85 1016.2
20260506160041 25 5 1.0 0.0 0.00 0.00 0.00 86 1015.9
20260506153026 25 314 1.0 0.0 0.00 0.00 0.00 83 1014.9
20260506152023 25 319 1.0 0.0 0.00 0.00 0.00 82 1014.8
20260506151019 25 289 1.0 0.0 0.00 0.00 0.00 84 1014.7
20260506150038 24 286 2.0 0.0 0.00 0.00 0.00 84 1014.6
20260506145030 24 263 2.0 0.0 0.00 0.00 0.00 85 1014.6
20260506144023 24 346 2.0 0.0 0.00 0.00 0.00 85 1014.4
20260506143039 24 286 1.0 0.0 0.00 0.00 0.00 86 1014.6
20260506142034 24 246 1.0 0.0 0.00 0.00 0.00 86 1014.4
20260506141026 23 304 2.0 0.0 0.00 0.00 0.00 86 1014.9
20260506140023 23 5 1.0 0.0 0.00 0.00 0.00 86 1014.9
20260506135035 23 286 1.0 0.0 0.00 0.00 0.00 86 1014.6
20260506134031 23 120 0.0 0.0 0.00 0.00 0.00 85 1014.4
20260506133021 23 340 0.0 0.0 0.00 0.00 0.00 86 1014.2
20260506132034 23 343 0.0 0.0 0.00 0.00 0.00 86 1013.9
20260506131028 23 348 0.0 0.0 0.00 0.00 0.00 87 1013.6
20260506130029 23 348 2.0 0.0 0.00 0.00 0.00 87 1013.4
20260506125022 23 350 1.0 0.0 0.00 0.00 0.00 87 1013.1
20260506123031 24 293 1.0 0.0 0.00 0.00 0.00 88 1013.5
20260506122023 23 290 1.0 0.0 0.00 0.00 0.00 88 1013.4
20260506121023 24 300 2.0 0.0 0.00 0.00 0.00 88 1013.0
20260506115036 24 279 2.0 0.0 0.00 0.00 0.00 88 1012.8
20260506114029 24 279 1.0 0.0 0.00 0.00 0.00 88 1012.6
20260506113021 24 324 0.0 0.0 0.00 0.00 0.00 89 1012.8
20260506112031 24 340 0.0 0.0 0.00 0.00 0.00 89 1012.6
20260506111028 24 345 1.0 0.0 0.00 0.00 0.00 89 1012.5
20260506110022 24 317 1.0 0.0 0.00 0.00 0.00 88 1012.4
20260506105035 24 311 0.0 0.0 0.00 0.00 0.00 88 1012.1
20260506104026 24 333 1.0 0.0 0.00 0.00 0.00 88 1012.2
20260506102020 25 322 0.0 0.0 0.00 0.00 0.00 87 1012.1
20260506101033 25 336 0.0 0.0 0.00 0.00 0.00 88 1012.1
20260506095033 25 338 1.0 0.0 0.00 0.00 0.00 87 1012.7
20260506094030 25 324 1.0 0.0 0.00 0.00 0.00 86 1012.7
20260506092029 25 228 0.0 0.0 0.00 0.00 0.00 86 1012.6
20260506091024 25 296 0.0 0.0 0.00 0.00 0.00 87 1012.1